EHI
0 0 0 0 0 0 0 0 0 0 0 0 0 0 0 0 0 0 0 0 1 1 1 0 0 0 0 0 0 0 0 0 0 0 0 0 0 0 0 0 0 0 0
0 0 0 0 0 0 0 0 0 0 0 0 0 0 0 0 0 0 0 0 0 0 0 0 0 0 0 0 0 0 0 0 0 0 0 0 0 0 0 0 0 0 0
0 0 0 0 0 0 0 0 0 0 0 0 0 0 0 0 0 0 0 0 0 0 0 0 0 0 0 0 0 0 0 0 0 0 0 0 0 0 0 1 0 0 0
0 0 0 0 0 0 0 0 0 0 0 0 0 0 0 0 0 0 0 0 0 0 0 0 0 0 0 0 1 1 1 0 0 0 1 1 1 0 0 0 0 0 0
0 0 0 0 0 0 0 0 0 0 0 0 0 0 0 0 0 0 0 0 0 0 0 0 0 0 0 0 1 2 1 0 0 0 1 2 1 0 0 0 0 0 0
0 0 0 0 0 0 0 0 0 0 0 0 0 0 0 0 0 0 0 0 0 0 0 0 0 0 0 0 0 1 1 0 0 0 1 1 0 0 0 0 0 0 0
0 0 0 0 0 0 0 0 0 0 0 0 0 0 0 0 0 0 0 0 0 0 0 0 0 0 0 0 0 0 0 0 0 0 0 0 0 0 0 0 0 0 0
0 0 0 0 0 0 0 0 0 0 0 0 0 0 0 0 0 0 0 0 0 0 0 0 0 0 0 0 0 0 0 0 0 0 0 0 0 0 0 0 0 0 0
0 0 0 0 0 0 0 0 0 0 0 0 0 0 0 0 0 0 0 0 0 0 0 0 0 0 0 0 0 0 0 0 0 0 0 0 0 0 0 0 0 0 0
0 0 0 0 0 0 0 0 0 0 0 0 0 0 0 0 0 0 0 0 0 0 0 0 0 0 0 0 0 0 0 0 0 0 0 0 0 0 0 0 0 0 0
0 0 0 0 0 0 0 0 0 0 0 0 0 0 0 0 0 0 0 0 0 0 0 0 0 0 0 0 0 0 0 0 0 0 0 0 0 0 0 0 0 0 0
0 0 0 0 0 0 0 0 0 0 0 0 0 0 0 0 0 0 0 0 0 0 0 0 0 0 0 0 0 0 0 0 0 0 0 0 0 0 0 0 0 0 0
0 0 0 0 0 0 0 0 0 0 0 0 0 0 0 0 0 0 0 0 0 0 0 0 0 0 0 0 0 0 0 0 0 0 0 0 0 0 0 0 0 0 0
0 0 0 0 0 0 0 0 0 0 0 0 0 0 0 0 0 0 0 0 0 0 0 0 0 0 0 0 0 0 0 0 0 0 0 0 0 0 0 0 0 0 0
0 0 0 0 0 0 0 0 0 0 0 0 0 0 0 0 0 0 0 0 0 0 0 0 0 0 0 0 0 0 0 0 0 0 0 0 0 0 0 0 0 0 0
0 0 0 0 0 0 0 0 0 0 0 0 0 0 0 0 0 0 0 0 0 0 0 0 0 0 0 0 0 0 0 0 0 0 0 0 0 0 0 0 0 0 0
0 0 0 0 0 0 0 0 0 0 0 0 0 0 0 0 0 0 0 0 0 0 0 0 0 0 0 0 0 0 0 0 0 0 0 0 0 0 0 0 0 0 0
0 0 0 0 0 0 0 0 0 0 0 0 0 0 0 0 0 0 0 0 0 0 0 0 0 0 0 0 0 0 0 0 0 0 0 0 0 0 0 0 0 0 0
0 0 0 0 0 0 0 0 0 0 0 0 0 0 0 0 0 0 0 0 0 0 0 0 0 0 0 0 0 0 0 0 0 0 0 0 0 0 0 0 0 0 0
0 0 0 0 0 0 0 0 0 0 0 0 0 0 0 0 0 0 0 0 0 0 0 0 0 0 0 0 0 0 0 0 0 0 0 0 0 0 0 0 0 0 0
0 0 0 0 0 0 0 0 0 0 0 0 0 0 0 0 0 0 0 0 0 0 0 0 0 0 0 0 0 0 0 0 0 0 0 0 0 0 0 0 0 0 0
0 0 0 0 0 0 0 0 0 0 0 0 0 0 0 0 0 0 0 0 0 0 0 0 0 0 0 0 0 0 0 0 0 0 0 0 0 0 0 0 0 0 0
0 0 0 0 0 0 0 0 0 0 0 0 0 0 0 0 0 0 0 0 0 0 0 0 0 0 0 0 0 0 0 0 0 0 0 0 0 0 0 0 0 0 0
0 0 0 0 0 0 0 0 0 0 0 0 0 0 0 0 0 0 0 0 0 0 0 0 0 0 0 0 0 0 0 0 0 0 0 0 0 0 0 0 0 0 0
0 0 0 0 0 0 0 0 0 0 0 0 0 0 0 0 0 0 0 0 0 0 0 0 0 0 0 0 0 0 0 0 0 0 0 0 0 0 0 0 0 0 0
0 0 0 0 0 0 0 0 0 0 0 0 0 0 0 0 0 0 0 0 0 0 0 0 0 0 0 0 0 0 0 0 0 0 0 0 0 0 0 0 0 0 0
Wind_Speed
2 2 1 1 1 1 2 2 3 3 4 4 5 5 4 3 3 3 3 7 8 8 8 8 8 8 8 8 8 8 8 8 8 8 8 8 8 8 8 8 8 8 8
3 3 2 1 1 2 2 2 3 3 3 4 4 4 4 3 3 3 3 4 8 8 8 8 8 9 8 8 8 8 8 8 8 8 8 8 8 9 9 9 9 9 9
3 3 2 2 2 2 3 3 4 3 4 4 4 4 3 3 3 3 3 3 3 7 8 8 8 9 8 8 8 8 8 8 8 8 8 8 8 8 9 9 9 9 9
4 4 3 2 2 2 3 3 3 3 3 3 3 3 3 2 3 3 3 3 3 3 5 8 8 8 8 8 8 8 8 8 8 7 8 8 8 8 9 9 10 10 10
4 4 3 2 3 3 2 3 3 3 3 3 3 3 3 2 2 3 3 3 3 3 3 6 7 7 7 8 7 8 7 7 7 7 7 8 8 8 9 9 10 10 10
4 4 3 3 3 3 3 3 3 3 2 2 3 3 2 2 3 3 2 2 2 3 3 4 3 5 7 7 7 7 7 7 6 7 7 8 8 8 9 9 9 10 10
3 3 3 3 3 3 3 4 3 4 2 2 3 3 3 4 3 2 2 3 3 3 3 4 3 3 3 7 7 7 7 6 6 7 8 8 8 8 9 9 9 10 10
3 3 4 3 3 3 3 3 3 2 1 1 3 3 2 3 3 3 2 2 2 2 3 3 3 3 3 2 5 7 7 7 6 7 7 8 8 8 9 9 10 10 10
3 3 4 3 3 3 3 3 3 4 2 1 1 3 3 1 1 3 3 2 2 2 2 2 3 3 3 2 3 5 7 6 7 7 7 8 8 8 8 9 9 9 10
3 3 4 4 3 2 3 3 3 2 3 2 0 1 2 4 3 0 2 2 2 2 1 2 2 2 2 2 3 6 7 6 7 7 7 7 8 8 8 8 9 9 9
2 3 3 3 3 2 3 3 3 2 2 2 2 1 1 1 2 3 1 1 2 2 1 1 1 1 1 2 2 4 7 7 7 7 7 7 7 8 8 8 9 9 9
1 2 3 3 3 2 3 3 3 3 2 2 2 2 2 2 2 2 2 1 0 1 1 1 1 0 1 1 2 5 6 7 7 8 7 7 7 7 7 8 9 9 9
1 2 3 3 2 3 3 2 2 2 2 2 2 1 2 2 2 3 3 2 1 0 1 1 1 0 1 1 1 4 5 6 7 7 7 7 7 7 7 8 8 8 9
3 3 3 3 3 3 3 3 2 2 2 2 2 2 1 1 2 3 3 4 2 0 1 1 1 1 1 1 1 2 3 6 6 7 7 7 8 8 8 8 8 8 8
3 4 3 3 3 2 3 3 2 2 2 2 2 2 1 1 1 2 2 4 4 2 1 1 0 1 0 1 1 1 1 5 6 6 6 7 7 7 7 7 7 7 7
3 4 3 3 3 2 3 3 2 2 3 2 1 2 1 1 1 1 2 2 2 3 2 1 1 1 1 2 3 2 2 5 5 6 6 6 6 6 6 7 7 7 7
4 4 4 3 3 3 3 3 3 3 3 2 2 2 2 1 1 1 1 2 2 3 3 0 0 1 1 2 2 1 1 2 2 4 4 4 4 5 5 6 6 6 6
4 4 4 3 3 3 3 4 4 3 3 3 2 2 2 2 2 1 2 2 2 2 4 3 1 1 1 1 2 1 1 1 1 2 3 3 4 4 4 4 5 5 5
4 4 4 4 4 3 3 3 4 4 3 3 3 3 3 3 2 2 2 2 2 2 3 3 2 1 1 1 1 1 1 1 1 2 2 2 2 3 3 3 3 3 4
4 4 4 4 4 4 3 3 3 3 3 2 2 2 3 4 4 3 3 2 3 3 3 3 2 1 1 1 2 1 1 1 1 1 1 1 1 1 1 2 2 3 3
3 4 4 3 3 3 3 3 3 4 3 2 1 1 2 3 4 4 3 4 4 3 3 3 2 2 1 1 1 1 1 0 1 1 1 1 1 1 1 1 1 2 2
2 3 3 4 3 3 5 6 5 4 3 3 2 1 1 2 3 5 5 6 7 6 5 3 2 2 2 2 2 2 2 1 1 1 1 1 1 0 1 1 0 1 1
1 2 2 3 3 4 6 7 7 5 4 3 3 2 2 2 2 2 4 5 4 6 7 6 5 4 4 4 4 2 2 2 2 1 1 0 0 1 1 1 2 2 2
2 1 2 3 3 4 6 7 8 5 3 2 2 3 3 2 3 4 4 3 2 2 4 4 4 4 4 4 5 5 4 2 1 1 2 1 1 1 2 1 2 3 3
1 1 2 3 3 3 6 7 6 3 2 2 2 2 3 3 4 6 5 4 2 0 1 4 4 4 5 6 5 4 3 2 0 1 0 1 1 1 1 2 2 2 3
2 1 1 2 3 3 5 6 7 3 3 2 1 2 3 4 6 7 5 5 4 2 2 2 2 2 1 3 5 4 4 3 2 1 1 2 1 1 1 2 2 1 2
Wind_Direction
149 144 127 103 94 92 98 94 86 78 72 79 87 90 88 80 65 48 43 66 76 84 86 86 84 82 81 78 76 74 71 72 72 69 69 69 67 64 63 62 57 49 46
138 127 114 98 95 108 112 106 101 91 82 80 78 82 87 83 71 59 43 51 64 72 81 82 82 84 83 83 79 74 71 71 70 70 72 72 69 67 64 62 59 54 50
128 125 120 112 110 110 102 92 86 82 85 79 72 74 79 75 77 67 54 43 47 60 71 76 77 77 79 80 79 74 71 72 71 71 70 70 69 67 64 63 60 56 52
122 118 118 119 116 107 101 98 93 85 77 77 70 59 63 66 74 67 62 57 48 43 53 65 69 72 72 75 77 76 74 73 72 73 74 72 71 68 66 63 59 57 53
118 118 120 121 116 105 102 110 98 103 97 84 77 61 48 57 63 76 70 64 58 48 42 53 57 61 65 67 71 75 74 74 73 77 78 76 74 70 68 64 61 58 56
118 120 122 120 117 108 95 98 101 91 100 102 90 66 40 40 54 61 67 66 59 56 51 45 37 41 50 57 60 70 73 76 78 82 83 82 77 72 68 66 64 62 59
125 123 124 117 116 118 124 122 113 97 89 101 86 52 27 37 48 42 48 61 59 55 54 48 44 35 29 38 42 57 66 74 76 79 82 81 76 73 70 68 65 62 61
139 134 129 131 127 115 112 118 120 112 118 122 119 102 37 12 12 25 35 64 59 55 60 59 48 45 32 19 35 50 50 60 69 74 80 83 78 75 72 68 66 63 61
137 134 134 133 133 134 142 147 144 142 153 187 151 137 137 183 332 357 18 39 44 49 52 55 55 45 41 30 21 36 53 54 64 72 75 82 82 78 75 69 66 65 65
133 142 144 145 140 140 149 164 158 154 146 171 233 154 159 155 149 70 354 7 31 45 46 68 55 42 38 36 40 54 57 53 58 65 67 73 78 80 77 72 70 70 69
141 148 148 146 149 159 168 166 150 150 152 165 173 155 114 106 131 144 172 341 13 11 29 56 67 44 40 45 42 63 64 60 59 59 59 68 71 75 75 74 72 70 68
156 164 155 150 160 167 175 174 161 157 153 151 156 153 154 160 169 154 161 175 114 341 17 20 40 49 57 46 65 77 75 68 66 62 60 62 67 71 71 73 72 68 65
185 195 164 165 171 180 185 171 153 150 149 143 151 157 165 178 163 149 144 157 151 307 19 14 349 7 90 54 50 85 83 77 72 67 65 65 68 72 71 69 69 67 66
190 183 174 181 184 182 179 160 148 158 148 146 145 144 144 167 154 156 155 150 141 26 18 333 360 4 64 79 59 70 81 87 79 72 68 67 68 71 71 69 67 64 64
178 173 171 175 180 178 169 156 149 157 141 144 145 137 126 150 141 154 152 157 152 156 231 258 298 320 114 91 87 81 84 97 91 80 75 74 74 74 73 73 69 65 61
175 166 171 173 166 165 160 154 149 151 137 146 138 128 119 126 141 133 148 147 139 146 161 213 217 201 161 119 114 87 87 100 97 90 81 79 79 76 78 78 77 71 65
175 172 173 168 164 165 157 154 163 158 150 142 133 138 144 141 132 130 130 119 115 122 132 163 24 107 114 119 96 73 89 79 99 107 102 98 93 89 85 84 83 78 71
179 179 175 169 172 173 166 163 176 170 162 160 163 142 157 152 135 135 134 129 126 126 132 138 108 91 114 146 138 123 117 124 120 121 122 116 115 111 106 100 92 87 77
173 176 177 179 174 171 168 170 171 168 169 170 167 161 170 152 151 150 144 136 132 119 108 126 127 87 77 101 88 80 81 41 98 113 115 102 104 119 121 118 111 102 88
174 179 181 179 173 168 169 173 162 156 156 156 163 169 169 165 170 166 152 147 132 117 109 117 120 110 96 81 99 102 59 28 17 44 64 85 82 103 120 136 137 126 111
183 178 164 167 167 166 174 170 163 153 151 147 148 167 169 163 161 160 152 154 142 132 125 125 133 113 110 124 165 167 136 71 1 7 40 8 31 23 354 290 193 171 150
159 156 164 170 178 188 176 170 158 148 148 150 158 169 159 153 141 144 142 148 149 150 154 150 158 167 190 181 156 148 134 118 288 303 119 336 63 327 285 270 272 153 156
123 144 171 167 175 184 170 161 156 149 152 166 172 170 164 143 130 132 126 127 142 154 158 162 164 189 188 189 160 148 152 155 194 239 123 285 333 278 278 284 232 223 228
138 154 168 169 169 179 164 156 151 147 149 166 173 169 165 168 155 144 130 122 130 162 179 171 177 188 182 175 174 174 170 146 100 32 117 177 278 273 297 287 265 230 238
155 175 182 175 174 182 164 156 148 147 153 180 184 173 169 172 159 143 139 140 135 151 138 148 148 150 150 152 146 123 119 115 171 274 144 156 253 290 307 295 293 273 259
178 182 193 186 182 183 171 161 155 153 157 172 164 179 171 163 156 149 151 153 159 190 141 115 100 96 143 151 152 163 165 156 161 235 219 159 185 108 315 302 304 301 281